{"data":{"norad_id":53621,"intl_designator":"2022-104AK","name":"STARLINK-4608","alt_names":[],"object_type":"PAYLOAD","status":"ACTIVE","operator":null,"country":"US","launch_date":"2022-08-28","launch_site_code":"AFETR","launch_vehicle":null,"mission":null,"orbit_class":"UNKNOWN","rcs_meters":null,"size_class":null,"mass_kg":null,"dimensions":null,"purposes":["comms"],"wikipedia_slug":null,"has_3d_model":false,"image_url":null,"decayed_at":null,"tle_current":{"epoch":"2026-05-24T23:38:29.272128Z","epoch_age_seconds":76675,"freshness":"FRESH","line1":"1 53621U 22104AK  26144.98506102  .00000062  00000+0  21985-4 0  9990","line2":"2 53621  53.2158 251.5698 0000612  50.1228 309.9818 15.08835245207150","mean_motion":15.08835245,"eccentricity":6.12e-5,"inclination_deg":53.2158,"raan_deg":251.5698,"arg_perigee_deg":50.1228,"mean_anomaly_deg":309.9818,"bstar":2.1985e-5,"rev_number":20715,"period_min":95.437855443256,"perigee_km":539.33454796571,"apogee_km":540.1812983043,"semimajor_km":6917.894923135,"source":"CELESTRAK","updated_at":"2026-05-25T13:38:17.479305Z"}}}